• In Hungary
  • List of Countries
  • For 7 days
  • Water Temperature
  • Satellite Maps
  • Weather Map
  • News
  • Weather Widgets
  • user-avatar
    Login

    Hourly Weather Kazanlak

    Today, 25 June, Monday

    Time Temperature Precipitation Wind Pressure Humidity
    00:00 +13°C° 0 mm 1 mps 708 mmHg 68%
    01:00 +13°C° 0 mm 1 mps 708 mmHg 70%
    02:00 +13°C° 0 mm 1 mps 708 mmHg 73%
    03:00 +12°C° 0 mm 1 mps 708 mmHg 75%
    04:00 +12°C° 0 mm 1 mps 708 mmHg 77%
    05:00 +12°C° 0 mm 1 mps 708 mmHg 79%
    06:00 +14°C° 0 mm 1 mps 708 mmHg 73%
    07:00 +16°C° 0 mm 1 mps 708 mmHg 68%
    08:00 +18°C° 0 mm 1 mps 709 mmHg 64%
    09:00 +19°C° 0 mm 1 mps 709 mmHg 59%
    10:00 +20°C° 0 mm 2 mps 709 mmHg 53%
    11:00 +21°C° 0 mm 2 mps 709 mmHg 48%
    12:00 +22°C° 0 mm 3 mps 709 mmHg 46%
    13:00 +22°C° 0 mm 3 mps 709 mmHg 45%
    14:00 +24°C° 0 mm 3 mps 709 mmHg 43%
    15:00 +24°C° 0 mm 3 mps 708 mmHg 44%
    16:00 +23°C° 0 mm 4 mps 708 mmHg 45%
    17:00 +22°C° 0 mm 4 mps 708 mmHg 45%
    18:00 +21°C° 0 mm 4 mps 708 mmHg 52%
    19:00 +19°C° 0 mm 3 mps 707 mmHg 58%
    20:00 +17°C° 0 mm 2 mps 707 mmHg 64%
    21:00 +16°C° 0 mm 2 mps 707 mmHg 68%
    22:00 +15°C° 0 mm 2 mps 708 mmHg 72%
    23:00 +14°C° 0 mm 2 mps 708 mmHg 76%

    Tomorrow, 26 June, Tuesday

    Time Temperature Precipitation Wind Pressure Humidity
    00:00 +14°C° 0 mm 1 mps 707 mmHg 78%
    01:00 +13°C° 0 mm 1 mps 707 mmHg 80%
    02:00 +13°C° 0 mm 1 mps 707 mmHg 82%
    03:00 +13°C° 0 mm 1 mps 707 mmHg 83%
    04:00 +12°C° 0 mm 1 mps 706 mmHg 84%
    05:00 +12°C° 0 mm 1 mps 706 mmHg 84%
    06:00 +14°C° 0 mm 2 mps 706 mmHg 75%
    07:00 +16°C° 0 mm 2 mps 707 mmHg 66%
    08:00 +18°C° 0 mm 2 mps 707 mmHg 57%
    09:00 +19°C° 0 mm 3 mps 707 mmHg 53%
    10:00 +20°C° 0 mm 3 mps 707 mmHg 48%
    11:00 +21°C° 0 mm 3 mps 707 mmHg 44%
    12:00 +22°C° 0 mm 3 mps 707 mmHg 44%
    13:00 +22°C° 0 mm 3 mps 706 mmHg 44%
    14:00 +24°C° 0 mm 3 mps 706 mmHg 43%
    15:00 +22°C° 0 mm 3 mps 705 mmHg 47%
    16:00 +22°C° 0 mm 3 mps 705 mmHg 51%
    17:00 +22°C° 0 mm 3 mps 705 mmHg 55%
    18:00 +20°C° 0.4 mm 3 mps 705 mmHg 62%
    19:00 +19°C° 0.4 mm 2 mps 704 mmHg 69%
    20:00 +17°C° 0.4 mm 2 mps 704 mmHg 76%
    21:00 +17°C° 1.7 mm 2 mps 704 mmHg 81%
    22:00 +16°C° 1.7 mm 2 mps 704 mmHg 87%
    23:00 +15°C° 1.7 mm 1 mps 704 mmHg 93%

    Day after tomorrow, 27 June, Wednesday

    Time Temperature Precipitation Wind Pressure Humidity
    00:00 +15°C° 2.4 mm 1 mps 703 mmHg 93%
    01:00 +15°C° 2.4 mm 2 mps 703 mmHg 93%
    02:00 +15°C° 2.4 mm 2 mps 703 mmHg 94%
    03:00 +15°C° 1.9 mm 2 mps 703 mmHg 94%
    04:00 +15°C° 1.9 mm 1 mps 702 mmHg 94%
    05:00 +15°C° 1.9 mm 1 mps 702 mmHg 94%
    06:00 +15°C° 0.2 mm 1 mps 702 mmHg 92%
    07:00 +16°C° 0.2 mm 1 mps 702 mmHg 90%
    08:00 +16°C° 0.2 mm 1 mps 702 mmHg 89%
    09:00 +19°C° 0.2 mm 1 mps 702 mmHg 84%
    10:00 +20°C° 0.2 mm 1 mps 702 mmHg 79%
    11:00 +21°C° 0.2 mm 1 mps 702 mmHg 74%
    12:00 +22°C° 0.8 mm 1 mps 702 mmHg 73%
    13:00 +21°C° 0.8 mm 2 mps 702 mmHg 72%
    14:00 +21°C° 0.8 mm 2 mps 701 mmHg 71%
    15:00 +21°C° 1.3 mm 2 mps 701 mmHg 72%
    16:00 +21°C° 1.3 mm 2 mps 701 mmHg 73%
    17:00 +22°C° 1.3 mm 1 mps 700 mmHg 74%
    18:00 +21°C° 0.7 mm 1 mps 700 mmHg 78%
    19:00 +18°C° 0.7 mm 2 mps 700 mmHg 82%
    20:00 +17°C° 0.7 mm 2 mps 700 mmHg 87%
    21:00 +17°C° 0.8 mm 2 mps 701 mmHg 89%
    22:00 +16°C° 0.8 mm 2 mps 701 mmHg 91%
    23:00 +16°C° 0.8 mm 2 mps 701 mmHg 93%

    28 June, Thursday

    Time Temperature Precipitation Wind Pressure Humidity
    00:00 +15°C° 0.5 mm 2 mps 701 mmHg 93%
    01:00 +15°C° 0.5 mm 1 mps 701 mmHg 94%
    02:00 +15°C° 0.5 mm 1 mps 701 mmHg 94%
    03:00 +15°C° 0.1 mm 1 mps 700 mmHg 94%
    04:00 +14°C° 0.1 mm 1 mps 700 mmHg 94%
    05:00 +14°C° 0.1 mm 1 mps 700 mmHg 94%
    06:00 +15°C° 0 mm 1 mps 701 mmHg 91%
    07:00 +16°C° 0 mm 1 mps 701 mmHg 88%
    08:00 +17°C° 0 mm 2 mps 701 mmHg 84%
    09:00 +19°C° 0.4 mm 2 mps 701 mmHg 80%
    10:00 +20°C° 0.4 mm 2 mps 701 mmHg 76%
    11:00 +21°C° 0.4 mm 2 mps 701 mmHg 72%
    12:00 +21°C° 1.3 mm 3 mps 701 mmHg 74%
    13:00 +21°C° 1.3 mm 3 mps 701 mmHg 75%
    14:00 +21°C° 1.3 mm 3 mps 701 mmHg 76%
    15:00 +21°C° 2.5 mm 3 mps 701 mmHg 77%
    16:00 +21°C° 2.5 mm 3 mps 701 mmHg 78%
    17:00 +21°C° 2.5 mm 3 mps 701 mmHg 79%
    18:00 +20°C° 0.6 mm 2 mps 701 mmHg 82%
    19:00 +19°C° 0.6 mm 2 mps 701 mmHg 85%
    20:00 +18°C° 0.6 mm 1 mps 701 mmHg 89%
    21:00 +18°C° 0 mm 1 mps 701 mmHg 90%
    22:00 +16°C° 0 mm 1 mps 701 mmHg 91%
    23:00 +15°C° 0 mm 1 mps 701 mmHg 93%

    29 June, Friday

    Time Temperature Precipitation Wind Pressure Humidity
    00:00 +15°C° 0.1 mm 1 mps 701 mmHg 93%
    01:00 +15°C° 0.1 mm 1 mps 701 mmHg 93%
    02:00 +14°C° 0.1 mm 1 mps 701 mmHg 93%
    03:00 +14°C° 0 mm 1 mps 701 mmHg 93%
    04:00 +14°C° 0 mm 1 mps 701 mmHg 93%
    05:00 +14°C° 0 mm 1 mps 701 mmHg 93%
    06:00 +15°C° 0 mm 1 mps 701 mmHg 88%
    07:00 +18°C° 0 mm 1 mps 701 mmHg 83%
    08:00 +19°C° 0 mm 1 mps 702 mmHg 78%
    09:00 +20°C° 0.3 mm 1 mps 702 mmHg 73%
    10:00 +21°C° 0.3 mm 2 mps 702 mmHg 67%
    11:00 +23°C° 0.3 mm 2 mps 702 mmHg 62%
    12:00 +24°C° 0.8 mm 2 mps 702 mmHg 60%
    13:00 +24°C° 0.8 mm 2 mps 702 mmHg 58%
    14:00 +24°C° 0.8 mm 2 mps 702 mmHg 57%
    15:00 +24°C° 0.4 mm 2 mps 702 mmHg 58%
    16:00 +24°C° 0.4 mm 2 mps 702 mmHg 59%
    17:00 +24°C° 0.4 mm 2 mps 702 mmHg 60%
    18:00 +23°C° 0.3 mm 2 mps 702 mmHg 66%
    19:00 +20°C° 0.3 mm 2 mps 702 mmHg 71%
    20:00 +19°C° 0.3 mm 1 mps 701 mmHg 77%
    21:00 +19°C° 0 mm 1 mps 702 mmHg 79%
    22:00 +17°C° 0 mm 2 mps 702 mmHg 81%
    23:00 +16°C° 0 mm 2 mps 702 mmHg 82%

    30 June, Saturday

    Time Temperature Precipitation Wind Pressure Humidity
    00:00 +16°C° 0 mm 1 mps 702 mmHg 83%
    01:00 +16°C° 0 mm 1 mps 701 mmHg 83%
    02:00 +15°C° 0 mm 1 mps 701 mmHg 83%
    03:00 +15°C° 0 mm 1 mps 701 mmHg 84%
    04:00 +15°C° 0 mm 1 mps 702 mmHg 84%
    05:00 +15°C° 0 mm 1 mps 702 mmHg 84%
    06:00 +18°C° 0 mm 1 mps 702 mmHg 79%
    07:00 +19°C° 0 mm 1 mps 703 mmHg 75%
    08:00 +20°C° 0 mm 2 mps 703 mmHg 70%
    09:00 +21°C° 0.4 mm 2 mps 703 mmHg 68%
    10:00 +23°C° 0.4 mm 2 mps 703 mmHg 65%
    11:00 +24°C° 0.4 mm 2 mps 703 mmHg 63%
    12:00 +24°C° 0.9 mm 2 mps 703 mmHg 62%
    13:00 +25°C° 0.9 mm 2 mps 703 mmHg 62%
    14:00 +25°C° 0.9 mm 2 mps 703 mmHg 61%
    15:00 +25°C° 0.7 mm 2 mps 703 mmHg 62%
    16:00 +25°C° 0.7 mm 3 mps 703 mmHg 62%
    17:00 +25°C° 0.7 mm 3 mps 703 mmHg 63%
    18:00 +23°C° 0.6 mm 2 mps 703 mmHg 69%
    19:00 +21°C° 0.6 mm 2 mps 703 mmHg 74%
    20:00 +19°C° 0.6 mm 2 mps 703 mmHg 80%
    21:00 +19°C° 0.2 mm 2 mps 703 mmHg 81%
    22:00 +18°C° 0.2 mm 2 mps 704 mmHg 82%
    23:00 +17°C° 0.2 mm 2 mps 704 mmHg 83%
    Show more